Regional Weather Roundup
Issued by NWS

Home | Current Version | Previous Version | Graphics & Text | Print | Product List | Glossary On
Versions: 1 2 3 4 5 6 7 8 9 10 11 12 13 14 15 16 17 18 19 20 21 22 23 24 25 26 27 28 29 30 31 32 33 34 35 36 37 38 39 40 41 42 43 44 45 46 47 48 49 50
000
ASUS43 KTOP 280259
RWRKS

WEATHER ROUNDUP FOR KANSAS
NATIONAL WEATHER SERVICE GOODLAND KS
1000 PM CDT SAT AUG 27 2016

NOTE:  "FAIR" INDICATES FEW OR NO CLOUDS BELOW 12,000 FEET WITH NO
SIGNIFICANT WEATHER AND/OR OBSTRUCTIONS TO VISIBILITY.

KSZ001>006-013>018-027>032-041>047-280400-
NORTHWEST KANSAS

CITY           SKY/WX    TMP DP  RH WIND       PRES   REMARKS
GOODLAND       CLOUDY    70  59  68 S10       30.05R
HAYS           PTCLDY    73  61  64 SE9       30.02R
HILL CITY      CLOUDY    72  66  81 SE6       30.03R
RUSSELL        PTCLDY    74  68  81 SE12      30.02R
$$

KSZ061>065-074>080-084>089-280400-
SOUTHWEST KANSAS

CITY           SKY/WX    TMP DP  RH WIND       PRES   REMARKS
DODGE CITY     CLOUDY    71  60  68 S6        30.04R
ELKHART          N/A     69  58  68 SE15        N/A
GARDEN CITY    CLEAR     71  63  75 SE7       30.04R
GREAT BEND     CLOUDY    75  64  69 SE8       30.03R
LIBERAL        CLOUDY    70  57  64 SE12      30.08R
$$

KSZ066>073-081>083-090>101-280400-
SOUTHEAST KANSAS

CITY           SKY/WX    TMP DP  RH WIND       PRES   REMARKS
CHANUTE        CLOUDY    77  74  90 S5        30.04R
COFFEYVILLE    CLEAR     81  71  71 SE8       30.03R
HUTCHINSON     CLEAR     77  70  79 SE7       30.03R
MEDICINE LODGE   N/A     78  64  61 S8        30.01R
NEWTON         CLEAR     75  71  87 SE6       30.05R
PARSONS        MOCLDY    81  70  69 SE5       30.05R
WICHITA INTL   PTCLDY    80  70  71 SE8       30.02R
WICHITA JABRA  CLEAR     77  71  82 SE7       30.03R
WINFIELD       CLEAR     79  69  71 SE6       30.03R
$$

KSZ007>012-019>026-033>040-048>060-102>105-280400-
NORTHEAST KANSAS

CITY           SKY/WX    TMP DP  RH WIND       PRES   REMARKS
CONCORDIA      CLOUDY    72  68  87 E3        30.03R
EMPORIA        CLEAR     73  69  87 E6        30.04R
LAWRENCE       CLEAR     71  69  93 W3        30.03R
MANHATTAN      CLEAR     75  71  87 CALM      30.01R
OLATHE IND     CLEAR     75  71  87 CALM      30.05R
OLATHE EXE     CLOUDY    74  73  97 CALM      30.05R
SALINA         PTCLDY    78  72  81 SE6       30.02R
TOPEKA BILLARD CLEAR     74  70  87 CALM      30.03R
TOPEKA FORBES  CLEAR     76  69  79 CALM      30.04R
$$



USA.gov is the U.S. government's official web portal to all federal, state and local government web resources and services.